Darstellungsparameter: Aktuell verwendete Einstellungen:
Skalierung der Graphiken ... ?
xyx+y,   Skalierungsfaktor:      Skalierung: Modus: x, Faktor: 1
Darstellungszeitraum ... ?
Vom - - bis: - -   Zeitraum: 03.08.2018 - 02.08.2019
Min/Max/Avg-Anzeige ... ?
Zeige MMA aktuell
Zeige MMA Monat
Zeige MMA alles
Zeige --A aktuell
Zeige --A Monat
Zeige --A alles
Keine MMA-Anzeige
MMA:
Keine MMA-Graphiken
MMA-Basis: 03.08.2018 - 02.08.2019
Quicknavigation für Darstellung... ?
Tage:      1T, 2T, 3T, 5T -1T -2T -3T -5T +1T +2T +3T +5T
Wochen: 1W, 2W, 3W -1W -2W -3W +1W +2W +3W
Monate: 1M, 3M, 6M -1M -3M -6M +1M +3M +6M
Jahre:    1J, 3J, 5J, 10J -1J -3J -5J -10J +1J +3J +5J +10J
Nutze für die Darstellung ... ?
Originaldaten oder ...
Mittelwerte Minima Maxima auf...
Stundenbasis Tagesbasis Wochenbasis
Monatsbasis Jahresbasis      Datenbasis: Mittelwerte auf Tagesbasis
Darstellen als:
Statistik (Auto) Statistik J:M      Darstellung:
Zur Graphik,    zurück zur Übersicht aller Sensoren.
 
Tabellarische Datenbersicht: ?
 
Sensor: Nr:Datum:Temp:Feuchte:Taupunkt:
Aussen-T/F 1 03-08-2018 00:00:00 26.4684 C 61.0278 % 18.34 C
2 04-08-2018 00:00:00 26.38714 C 57.9821 % 17.45 C
3 05-08-2018 00:00:00 24.70486 C 59.6424 % 16.32 C
4 06-08-2018 00:00:00 24.16944 C 57.6563 % 15.29 C
5 07-08-2018 00:00:00 26.73646 C 55.5104 % 17.09 C
6 08-08-2018 00:00:00 25.29618 C 61.3021 % 17.31 C
7 09-08-2018 00:00:00 20.57778 C 82.7639 % 17.54 C
8 10-08-2018 00:00:00 18.35486 C 65.3924 % 11.76 C
9 11-08-2018 00:00:00 18.37083 C 59.8611 % 10.44 C
10 12-08-2018 00:00:00 18.15451 C 63.0729 % 11.02 C
11 13-08-2018 00:00:00 17.68854 C 81.8924 % 14.56 C
12 14-08-2018 00:00:00 18.53958 C 84.6563 % 15.91 C
13 15-08-2018 00:00:00 19.375 C 79.2465 % 15.69 C
14 16-08-2018 00:00:00 20.74444 C 71.2743 % 15.36 C
15 17-08-2018 00:00:00 19.75903 C 76.6632 % 15.54 C
16 18-08-2018 00:00:00 18.88785 C 68.7326 % 13.02 C
17 19-08-2018 00:00:00 20.30521 C 67.4132 % 14.07 C
18 20-08-2018 00:00:00 20.84444 C 73.5938 % 15.95 C
19 21-08-2018 00:00:00 21.96979 C 70.6528 % 16.39 C
20 22-08-2018 00:00:00 23.24757 C 65.7500 % 16.48 C
21 23-08-2018 00:00:00 22.88681 C 69.0660 % 16.91 C
22 24-08-2018 00:00:00 19.03368 C 65.5556 % 12.44 C
23 25-08-2018 00:00:00 14.525 C 69.8438 % 9.09 C
24 26-08-2018 00:00:00 13.80556 C 67.7882 % 7.96 C
25 27-08-2018 00:00:00 18.12604 C 70.1493 % 12.6 C
Sensor: Nr:Datum:Temp:Feuchte:Taupunkt:
Aussen-T/F 26 28-08-2018 00:00:00 18.12917 C 67.6632 % 12.06 C
27 29-08-2018 00:00:00 17.15556 C 80.1528 % 13.71 C
28 30-08-2018 00:00:00 17.22778 C 75.0799 % 12.78 C
29 31-08-2018 00:00:00 15.05521 C 72.2951 % 10.11 C
30 01-09-2018 00:00:00 14.30833 C 69.0799 % 8.72 C
31 02-09-2018 00:00:00 14.27188 C 76.5347 % 10.21 C
32 03-09-2018 00:00:00 18.05417 C 80.5556 % 14.66 C
33 04-09-2018 00:00:00 20.01736 C 79.3507 % 16.33 C
34 05-09-2018 00:00:00 20.91701 C 73.3229 % 15.97 C
35 06-09-2018 00:00:00 18.07014 C 87.7049 % 16 C
36 07-09-2018 00:00:00 15.72639 C 86.9479 % 13.56 C
37 08-09-2018 00:00:00 13.53889 C 76.5139 % 9.49 C
38 09-09-2018 00:00:00 16.94236 C 70.6667 % 11.58 C
39 10-09-2018 00:00:00 17.5 C 71.7396 % 12.34 C
40 11-09-2018 00:00:00 18.85868 C 70.4028 % 13.36 C
41 12-09-2018 00:00:00 19.08646 C 71.2882 % 13.77 C
42 13-09-2018 00:00:00 16.3625 C 85.6632 % 13.96 C
43 14-09-2018 00:00:00 16.95174 C 71.3056 % 11.73 C
44 15-09-2018 00:00:00 15.14028 C 70.3368 % 9.78 C
45 16-09-2018 00:00:00 14.7184 C 71.4063 % 9.6 C
46 17-09-2018 00:00:00 16.79306 C 68.7813 % 11.03 C
47 18-09-2018 00:00:00 19.05208 C 70.2292 % 13.51 C
48 19-09-2018 00:00:00 20.67951 C 71.7535 % 15.4 C
49 20-09-2018 00:00:00 19.17153 C 72.3785 % 14.09 C
50 21-09-2018 00:00:00 15.93472 C 78.7778 % 12.26 C
Sensor: Nr:Datum:Temp:Feuchte:Taupunkt:
Aussen-T/F 51 22-09-2018 00:00:00 12.7566 C 77.2465 % 8.88 C
52 23-09-2018 00:00:00 12.33056 C 94.4167 % 11.46 C
53 24-09-2018 00:00:00 9.92396 C 85.7674 % 7.66 C
54 25-09-2018 00:00:00 8.38785 C 85.7431 % 6.14 C
55 26-09-2018 00:00:00 8.82917 C 82.7153 % 6.06 C
56 27-09-2018 00:00:00 11.32708 C 83.9236 % 8.71 C
57 28-09-2018 00:00:00 10.18526 C 91.0982 % 8.8 C
58 29-09-2018 00:00:00 8.2941 C 81.8056 % 5.37 C
59 30-09-2018 00:00:00 7.9427 C 82.6726 % 5.18 C
60 01-10-2018 00:00:00 9.71701 C 81.2778 % 6.67 C
61 02-10-2018 00:00:00 9.17604 C 87.5625 % 7.22 C
62 03-10-2018 00:00:00 12.2809 C 82.0521 % 9.31 C
63 04-10-2018 00:00:00 9.78056 C 87.1875 % 7.75 C
64 05-10-2018 00:00:00 10.63021 C 88.2743 % 8.77 C
65 06-10-2018 00:00:00 12.7691 C 89.0000 % 11 C
66 07-10-2018 00:00:00 13.00243 C 89.0833 % 11.25 C
67 08-10-2018 00:00:00 10.50347 C 88.5521 % 8.69 C
68 09-10-2018 00:00:00 11.75035 C 91.4340 % 10.4 C
69 10-10-2018 00:00:00 13.21285 C 90.3646 % 11.67 C
70 11-10-2018 00:00:00 14.21701 C 88.2674 % 12.31 C
71 12-10-2018 00:00:00 15.87882 C 86.2604 % 13.59 C
72 13-10-2018 00:00:00 15.57986 C 84.2257 % 12.93 C
73 14-10-2018 00:00:00 14.79965 C 83.0174 % 11.95 C
74 15-10-2018 00:00:00 13.825 C 84.5903 % 11.28 C
75 16-10-2018 00:00:00 12.87292 C 86.4653 % 10.67 C
Sensor: Nr:Datum:Temp:Feuchte:Taupunkt:
Aussen-T/F 76 17-10-2018 00:00:00 12.82847 C 88.3368 % 10.95 C
77 18-10-2018 00:00:00 14.04618 C 88.4722 % 12.17 C
78 19-10-2018 00:00:00 12.08785 C 87.8889 % 10.14 C
79 20-10-2018 00:00:00 11.03542 C 86.2431 % 8.83 C
80 21-10-2018 00:00:00 7.3066 C 91.4479 % 6.01 C
81 22-10-2018 00:00:00 7.67014 C 90.5417 % 6.22 C
82 23-10-2018 00:00:00 9.04306 C 84.6944 % 6.61 C
83 24-10-2018 00:00:00 14.07604 C 86.3472 % 11.83 C
84 25-10-2018 00:00:00 12.94722 C 83.3368 % 10.19 C
85 26-10-2018 00:00:00 10.21354 C 80.8299 % 7.07 C
86 27-10-2018 00:00:00 6.27118 C 90.9340 % 4.9 C
87 28-10-2018 00:00:00 5.67778 C 83.1424 % 3.05 C
88 29-10-2018 00:00:00 6.43264 C 84.8160 % 4.07 C
89 30-10-2018 00:00:00 6.2809 C 91.5868 % 5.02 C
90 31-10-2018 00:00:00 7.45382 C 86.8194 % 5.41 C
91 01-11-2018 00:00:00 6.13194 C 95.0799 % 5.4 C
92 02-11-2018 00:00:00 8.86597 C 94.0486 % 7.96 C
93 03-11-2018 00:00:00 3.50521 C 96.4549 % 3 C
94 04-11-2018 00:00:00 6.86007 C 95.2361 % 6.15 C
95 05-11-2018 00:00:00 10.39097 C 92.1042 % 9.17 C
96 06-11-2018 00:00:00 8.41806 C 95.6667 % 7.77 C
97 07-11-2018 00:00:00 9.32118 C 92.4167 % 8.16 C
98 08-11-2018 00:00:00 10.425 C 89.0660 % 8.7 C
99 09-11-2018 00:00:00 9.62604 C 92.9861 % 8.55 C
100 10-11-2018 00:00:00 11.90347 C 90.1250 % 10.34 C
Sensor: Nr:Datum:Temp:Feuchte:Taupunkt:
Aussen-T/F 101 11-11-2018 00:00:00 12.04618 C 90.5972 % 10.56 C
102 12-11-2018 00:00:00 13.70069 C 90.0278 % 12.1 C
103 13-11-2018 00:00:00 10.46076 C 92.4965 % 9.3 C
104 14-11-2018 00:00:00 6.18264 C 96.5938 % 5.68 C
105 15-11-2018 00:00:00 6.9816 C 91.5660 % 5.71 C
106 16-11-2018 00:00:00 5.92778 C 89.7882 % 4.38 C
107 17-11-2018 00:00:00 2.75417 C 88.6667 % 1.07 C
108 18-11-2018 00:00:00 1.8566 C 79.8333 % -1.25 C
109 19-11-2018 00:00:00 3.57014 C 81.2153 % 0.66 C
110 20-11-2018 00:00:00 3.50972 C 80.1910 % 0.43 C
111 21-11-2018 00:00:00 2.50312 C 88.6979 % 0.83 C
112 22-11-2018 00:00:00 2.91458 C 88.0903 % 1.14 C
113 23-11-2018 00:00:00 0.10868 C 95.3785 % -0.54 C
114 24-11-2018 00:00:00 4.74792 C 96.2674 % 4.21 C
115 25-11-2018 00:00:00 5.98785 C 95.8785 % 5.38 C
116 26-11-2018 00:00:00 6.65625 C 87.8958 % 4.8 C
117 27-11-2018 00:00:00 4.12465 C 83.8368 % 1.64 C
118 28-11-2018 00:00:00 3.7 C 91.6667 % 2.47 C
119 29-11-2018 00:00:00 5.67875 C 92.7735 % 4.6 C
120 30-11-2018 00:00:00 7.44514 C 94.6875 % 6.65 C
121 01-12-2018 00:00:00 7.48993 C 91.5833 % 6.21 C
122 02-12-2018 00:00:00 11.28056 C 93.0868 % 10.21 C
123 03-12-2018 00:00:00 11.76701 C 95.7708 % 11.11 C
124 04-12-2018 00:00:00 6.48715 C 90.9653 % 5.12 C
125 05-12-2018 00:00:00 3.60729 C 96.1806 % 3.06 C
Sensor: Nr:Datum:Temp:Feuchte:Taupunkt:
Aussen-T/F 126 06-12-2018 00:00:00 9.76042 C 93.8924 % 8.83 C
127 07-12-2018 00:00:00 11.22882 C 86.6667 % 9.09 C
128 08-12-2018 00:00:00 7.97361 C 88.5035 % 6.19 C
129 09-12-2018 00:00:00 8.02544 C 87.9756 % 6.16 C
130 10-12-2018 00:00:00 4.96771 C 91.2639 % 3.67 C
131 11-12-2018 00:00:00 3.84375 C 93.7118 % 2.93 C
132 12-12-2018 00:00:00 2.70801 C 95.4948 % 2.06 C
133 13-12-2018 00:00:00 1.36181 C 87.4618 % -0.49 C
134 14-12-2018 00:00:00 1.15521 C 77.4757 % -2.33 C
135 15-12-2018 00:00:00 0.62683 C 78.6202 % -2.65 C
136 16-12-2018 00:00:00 0.77743 C 90.5382 % -0.59 C
137 17-12-2018 00:00:00 4.19722 C 94.8194 % 3.44 C
138 18-12-2018 00:00:00 5.08229 C 90.2917 % 3.63 C
139 19-12-2018 00:00:00 6.54495 C 88.8537 % 4.84 C
140 20-12-2018 00:00:00 7.58741 C 89.6818 % 6 C
141 21-12-2018 00:00:00 10.78507 C 86.4514 % 8.62 C
142 22-12-2018 00:00:00 9.94266 C 85.9091 % 7.7 C
143 23-12-2018 00:00:00 8.60868 C 93.6563 % 7.65 C
144 24-12-2018 00:00:00 4.88924 C 90.8750 % 3.53 C
145 25-12-2018 00:00:00 1.85208 C 93.1667 % 0.87 C
146 26-12-2018 00:00:00 -0.91736 C 95.5035 % -1.54 C
147 27-12-2018 00:00:00 0.08125 C 95.8090 % -0.51 C
148 28-12-2018 00:00:00 0.225 C 94.9375 % -0.49 C
149 29-12-2018 00:00:00 2.70972 C 93.3576 % 1.75 C
150 30-12-2018 00:00:00 7.50313 C 87.4271 % 5.55 C
Sensor: Nr:Datum:Temp:Feuchte:Taupunkt:
Aussen-T/F 151 31-12-2018 00:00:00 7.59271 C 96.4201 % 7.06 C
152 01-01-2019 00:00:00 7.09271 C 92.0833 % 5.9 C
153 02-01-2019 00:00:00 3.70104 C 82.7847 % 1.05 C
154 03-01-2019 00:00:00 2.03715 C 93.0000 % 1.03 C
155 04-01-2019 00:00:00 3.13785 C 91.9826 % 1.96 C
156 05-01-2019 00:00:00 5.92632 C 93.3825 % 4.94 C
157 06-01-2019 00:00:00 5.76944 C 91.7674 % 4.54 C
158 07-01-2019 00:00:00 5.50417 C 89.8819 % 3.98 C
159 08-01-2019 00:00:00 6.62222 C 85.9688 % 4.45 C
160 09-01-2019 00:00:00 3.90486 C 83.8368 % 1.43 C
161 10-01-2019 00:00:00 2.05694 C 83.7708 % -0.39 C
162 11-01-2019 00:00:00 2.82847 C 94.7882 % 2.08 C
163 12-01-2019 00:00:00 5.96702 C 92.9734 % 4.92 C
164 13-01-2019 00:00:00 7.73715 C 94.1493 % 6.86 C
165 14-01-2019 00:00:00 5.07083 C 89.5625 % 3.5 C
166 15-01-2019 00:00:00 4.78854 C 89.1007 % 3.15 C
167 16-01-2019 00:00:00 5.27187 C 85.4861 % 3.04 C
168 17-01-2019 00:00:00 5.0066 C 87.3924 % 3.09 C
169 18-01-2019 00:00:00 0.77569 C 91.8611 % -0.39 C
170 19-01-2019 00:00:00 -2.72396 C 93.3299 % -3.65 C
171 20-01-2019 00:00:00 -4.97187 C 92.8854 % -5.94 C
172 21-01-2019 00:00:00 -6.20972 C 93.8472 % -7.04 C
173 22-01-2019 00:00:00 -4.96667 C 92.0938 % -6.05 C
174 23-01-2019 00:00:00 -1.57743 C 89.4028 % -3.09 C
175 24-01-2019 00:00:00 -1.91736 C 83.8854 % -4.27 C
Sensor: Nr:Datum:Temp:Feuchte:Taupunkt:
Aussen-T/F 176 25-01-2019 00:00:00 0.28403 C 88.1354 % -1.44 C
177 26-01-2019 00:00:00 4.48229 C 92.3229 % 3.35 C
178 27-01-2019 00:00:00 5.94583 C 90.0868 % 4.45 C
179 28-01-2019 00:00:00 3.17118 C 90.8854 % 1.83 C
180 29-01-2019 00:00:00 1.73021 C 89.6875 % 0.22 C
181 30-01-2019 00:00:00 0.45972 C 93.3264 % -0.49 C
182 31-01-2019 00:00:00 -0.09826 C 94.7188 % -0.84 C
183 01-02-2019 00:00:00 1.74826 C 95.6389 % 1.13 C
184 02-02-2019 00:00:00 2.46701 C 96.8611 % 2.02 C
185 03-02-2019 00:00:00 2.7 C 88.6910 % 1.02 C
186 04-02-2019 00:00:00 1.83229 C 87.0625 % -0.09 C
187 05-02-2019 00:00:00 4.34375 C 81.1771 % 1.41 C
188 06-02-2019 00:00:00 1.17639 C 89.9688 % -0.28 C
189 07-02-2019 00:00:00 5.09549 C 88.0833 % 3.29 C
190 08-02-2019 00:00:00 7.42604 C 83.5417 % 4.83 C
191 09-02-2019 00:00:00 8.6309 C 79.8056 % 5.35 C
192 10-02-2019 00:00:00 7.96076 C 88.4965 % 6.18 C
193 11-02-2019 00:00:00 4.86736 C 86.4931 % 2.81 C
194 12-02-2019 00:00:00 3.71597 C 86.6563 % 1.7 C
195 13-02-2019 00:00:00 1.77951 C 91.5833 % 0.56 C
196 14-02-2019 00:00:00 0.77431 C 92.7674 % -0.26 C
197 15-02-2019 00:00:00 2.33854 C 89.2917 % 0.76 C
198 16-02-2019 00:00:00 3.375 C 88.6319 % 1.68 C
199 17-02-2019 00:00:00 3.45451 C 89.9236 % 1.96 C
200 18-02-2019 00:00:00 3.69653 C 86.8368 % 1.71 C
Sensor: Nr:Datum:Temp:Feuchte:Taupunkt:
Aussen-T/F 201 19-02-2019 00:00:00 5.85868 C 87.7118 % 3.98 C
202 20-02-2019 00:00:00 4.70694 C 89.0660 % 3.06 C
203 21-02-2019 00:00:00 6.3625 C 90.0174 % 4.85 C
204 22-02-2019 00:00:00 9.91111 C 88.0347 % 8.03 C
205 23-02-2019 00:00:00 5.41076 C 78.7188 % 2.02 C
206 24-02-2019 00:00:00 3.39271 C 73.0729 % -0.96 C
207 25-02-2019 00:00:00 5.05139 C 74.1181 % 0.83 C
208 26-02-2019 00:00:00 6.18646 C 80.1042 % 3.02 C
209 27-02-2019 00:00:00 6.63576 C 79.5313 % 3.36 C
210 28-02-2019 00:00:00 8.81701 C 78.9201 % 5.37 C
211 01-03-2019 00:00:00 8.12708 C 91.9583 % 6.9 C
212 02-03-2019 00:00:00 8.64236 C 85.0868 % 6.28 C
213 03-03-2019 00:00:00 11.11319 C 80.0069 % 7.8 C
214 04-03-2019 00:00:00 9.71875 C 78.3854 % 6.15 C
215 05-03-2019 00:00:00 6.87396 C 81.6181 % 3.95 C
216 06-03-2019 00:00:00 10.01944 C 78.9792 % 6.55 C
217 07-03-2019 00:00:00 10.20729 C 79.2014 % 6.77 C
218 08-03-2019 00:00:00 8.18854 C 79.1181 % 4.79 C
219 09-03-2019 00:00:00 10.36875 C 76.7188 % 6.46 C
220 10-03-2019 00:00:00 9.55694 C 76.8507 % 5.7 C
221 11-03-2019 00:00:00 4.7934 C 79.8264 % 1.61 C
222 12-03-2019 00:00:00 6.61563 C 70.1319 % 1.57 C
223 13-03-2019 00:00:00 6.20382 C 82.8472 % 3.51 C
224 14-03-2019 00:00:00 7.03611 C 87.2674 % 5.07 C
225 15-03-2019 00:00:00 10.13993 C 87.2014 % 8.11 C
Sensor: Nr:Datum:Temp:Feuchte:Taupunkt:
Aussen-T/F 226 16-03-2019 00:00:00 10.23472 C 85.5417 % 7.92 C
227 17-03-2019 00:00:00 8.66319 C 77.8160 % 5.02 C
228 18-03-2019 00:00:00 4.96458 C 85.1458 % 2.68 C
229 19-03-2019 00:00:00 3.83715 C 80.5000 % 0.8 C
230 20-03-2019 00:00:00 5.47951 C 77.2882 % 1.83 C
231 21-03-2019 00:00:00 7.53194 C 73.6076 % 3.13 C
232 22-03-2019 00:00:00 9.15799 C 72.1563 % 4.41 C
233 23-03-2019 00:00:00 6.18576 C 87.5035 % 4.27 C
234 24-03-2019 00:00:00 6.4583 C 83.7380 % 3.91 C
235 25-03-2019 00:00:00 5.13299 C 86.0243 % 2.99 C
236 26-03-2019 00:00:00 6.64792 C 81.5799 % 3.73 C
237 27-03-2019 00:00:00 6.81528 C 80.7535 % 3.75 C
238 28-03-2019 00:00:00 7.32535 C 81.7951 % 4.43 C
239 29-03-2019 00:00:00 8.96493 C 79.2708 % 5.57 C
240 30-03-2019 00:00:00 10.50104 C 72.7500 % 5.82 C
241 31-03-2019 00:00:00 10.31594 C 80.1486 % 7.05 C
242 01-04-2019 00:00:00 9.41771 C 75.2326 % 5.26 C
243 02-04-2019 00:00:00 10.74375 C 76.1979 % 6.73 C
244 03-04-2019 00:00:00 8.37083 C 86.8889 % 6.32 C
245 04-04-2019 00:00:00 6.05799 C 93.2604 % 5.05 C
246 05-04-2019 00:00:00 6.32535 C 92.0556 % 5.13 C
247 06-04-2019 00:00:00 10.20313 C 83.4549 % 7.53 C
248 07-04-2019 00:00:00 12.02083 C 75.0764 % 7.75 C
249 08-04-2019 00:00:00 12.69757 C 85.2188 % 10.28 C
250 09-04-2019 00:00:00 12.23472 C 88.4201 % 10.38 C
Sensor: Nr:Datum:Temp:Feuchte:Taupunkt:
Aussen-T/F 251 10-04-2019 00:00:00 10.80035 C 65.8750 % 4.69 C
252 11-04-2019 00:00:00 6.94306 C 60.9931 % -0.05 C
253 12-04-2019 00:00:00 5.01528 C 58.9653 % -2.32 C
254 13-04-2019 00:00:00 3.85556 C 75.6458 % -0.04 C
255 14-04-2019 00:00:00 5.53576 C 76.5590 % 1.75 C
256 15-04-2019 00:00:00 10.42187 C 69.5868 % 5.11 C
257 16-04-2019 00:00:00 11.20417 C 67.0417 % 5.32 C
258 17-04-2019 00:00:00 12.74861 C 83.8576 % 10.09 C
259 18-04-2019 00:00:00 14.16528 C 65.0556 % 7.7 C
260 19-04-2019 00:00:00 15.41285 C 56.3681 % 6.78 C
261 20-04-2019 00:00:00 14.87153 C 61.3125 % 7.5 C
262 21-04-2019 00:00:00 15.62813 C 58.4688 % 7.52 C
263 22-04-2019 00:00:00 14.99375 C 59.5382 % 7.19 C
264 23-04-2019 00:00:00 15.15903 C 61.0799 % 7.72 C
265 24-04-2019 00:00:00 15.11424 C 73.1042 % 10.34 C
266 25-04-2019 00:00:00 13.28785 C 78.5139 % 9.64 C
267 26-04-2019 00:00:00 11.86806 C 83.8681 % 9.23 C
268 27-04-2019 00:00:00 9.34688 C 89.7569 % 7.75 C
269 28-04-2019 00:00:00 8.50208 C 83.0000 % 5.79 C
270 29-04-2019 00:00:00 8.56736 C 84.4653 % 6.1 C
271 30-04-2019 00:00:00 14.05278 C 68.6979 % 8.39 C
272 01-05-2019 00:00:00 12.7816 C 76.3333 % 8.73 C
273 02-05-2019 00:00:00 11.4566 C 80.2535 % 8.18 C
274 03-05-2019 00:00:00 11.00208 C 73.3056 % 6.42 C
275 04-05-2019 00:00:00 6.36493 C 84.2014 % 3.9 C
Sensor: Nr:Datum:Temp:Feuchte:Taupunkt:
Aussen-T/F 276 05-05-2019 00:00:00 6.67882 C 81.4167 % 3.73 C
277 06-05-2019 00:00:00 7.62465 C 77.0660 % 3.87 C
278 07-05-2019 00:00:00 9.6066 C 73.7396 % 5.16 C
279 08-05-2019 00:00:00 9.41667 C 88.5972 % 7.63 C
280 09-05-2019 00:00:00 11.20938 C 88.9410 % 9.46 C
281 10-05-2019 00:00:00 12.49306 C 77.5833 % 8.69 C
282 11-05-2019 00:00:00 10.05833 C 93.1111 % 9 C
283 12-05-2019 00:00:00 9.40625 C 72.7778 % 4.78 C
284 13-05-2019 00:00:00 9.96736 C 61.6701 % 2.96 C
285 14-05-2019 00:00:00 9.58299 C 64.4479 % 3.22 C
286 15-05-2019 00:00:00 9.79896 C 60.9583 % 2.64 C
287 16-05-2019 00:00:00 10.83854 C 70.4271 % 5.68 C
288 17-05-2019 00:00:00 11.60069 C 89.4896 % 9.93 C
289 18-05-2019 00:00:00 14.44306 C 85.5035 % 12.04 C
290 19-05-2019 00:00:00 15.85694 C 83.5868 % 13.08 C
291 20-05-2019 00:00:00 13.90347 C 89.8125 % 12.26 C
292 21-05-2019 00:00:00 12.49722 C 93.0868 % 11.41 C
293 22-05-2019 00:00:00 13.38785 C 80.8681 % 10.17 C
294 23-05-2019 00:00:00 15.11875 C 74.1389 % 10.55 C
295 24-05-2019 00:00:00 16.93437 C 70.9271 % 11.63 C
296 25-05-2019 00:00:00 15.60035 C 67.4167 % 9.59 C
297 26-05-2019 00:00:00 15.92014 C 74.4549 % 11.39 C
298 27-05-2019 00:00:00 14.98924 C 90.8889 % 13.51 C
299 28-05-2019 00:00:00 13.95729 C 85.1146 % 11.5 C
300 29-05-2019 00:00:00 14.97951 C 68.2535 % 9.18 C
Sensor: Nr:Datum:Temp:Feuchte:Taupunkt:
Aussen-T/F 301 30-05-2019 00:00:00 15.62396 C 78.5069 % 11.9 C
302 31-05-2019 00:00:00 19.22674 C 74.1806 % 14.52 C
303 01-06-2019 00:00:00 19.98924 C 74.3090 % 15.28 C
304 02-06-2019 00:00:00 22.09028 C 70.5521 % 16.49 C
305 03-06-2019 00:00:00 20.85625 C 73.4583 % 15.94 C
306 04-06-2019 00:00:00 21.5059 C 73.6146 % 16.59 C
307 05-06-2019 00:00:00 23.45243 C 67.8507 % 17.17 C
308 06-06-2019 00:00:00 15.94271 C 78.5556 % 12.22 C
309 07-06-2019 00:00:00 15.6809 C 76.3646 % 11.54 C
310 08-06-2019 00:00:00 16.15243 C 62.7743 % 9.06 C
311 09-06-2019 00:00:00 16.23438 C 72.8542 % 11.36 C
312 10-06-2019 00:00:00 19.2684 C 73.8403 % 14.49 C
313 11-06-2019 00:00:00 17.19063 C 83.4826 % 14.37 C
314 12-06-2019 00:00:00 16.48854 C 82.3194 % 13.47 C
315 13-06-2019 00:00:00 15.92743 C 75.5694 % 11.62 C
316 14-06-2019 00:00:00 17.88507 C 82.6875 % 14.9 C
317 15-06-2019 00:00:00 19.62083 C 79.3646 % 15.95 C
318 16-06-2019 00:00:00 19.34479 C 71.4271 % 14.05 C
319 17-06-2019 00:00:00 18.93646 C 73.1111 % 14.02 C
320 18-06-2019 00:00:00 21.4625 C 72.7188 % 16.36 C
321 19-06-2019 00:00:00 22.17049 C 73.3125 % 17.17 C
322 20-06-2019 00:00:00 19.48229 C 80.3681 % 16.01 C
323 21-06-2019 00:00:00 18.55694 C 68.4306 % 12.64 C
324 22-06-2019 00:00:00 19.16771 C 69.5729 % 13.47 C
325 23-06-2019 00:00:00 21.78854 C 71.5521 % 16.42 C
Sensor: Nr:Datum:Temp:Feuchte:Taupunkt:
Aussen-T/F 326 24-06-2019 00:00:00 24.3809 C 68.9965 % 18.32 C
327 25-06-2019 00:00:00 26.30625 C 65.6458 % 19.36 C
328 26-06-2019 00:00:00 26.97257 C 66.5486 % 20.21 C
329 27-06-2019 00:00:00 24.42326 C 58.6910 % 15.81 C
330 28-06-2019 00:00:00 21.63368 C 60.1458 % 13.57 C
331 29-06-2019 00:00:00 24.00937 C 53.3750 % 13.95 C
332 30-06-2019 00:00:00 25.32014 C 62.4688 % 17.63 C
333 01-07-2019 00:00:00 22.68715 C 60.6875 % 14.7 C
334 02-07-2019 00:00:00 19.04306 C 61.0868 % 11.38 C
335 03-07-2019 00:00:00 17.43472 C 61.1146 % 9.87 C
336 04-07-2019 00:00:00 18.23021 C 56.4375 % 9.43 C
337 05-07-2019 00:00:00 20.73889 C 56.5486 % 11.8 C
338 06-07-2019 00:00:00 21.18681 C 61.5174 % 13.5 C
339 07-07-2019 00:00:00 17.74306 C 68.3819 % 11.85 C
340 08-07-2019 00:00:00 14.44931 C 70.9271 % 9.25 C
341 09-07-2019 00:00:00 15.40868 C 66.0868 % 9.11 C
342 10-07-2019 00:00:00 16.98854 C 57.9271 % 8.66 C
343 11-07-2019 00:00:00 17.76076 C 79.7500 % 14.22 C
344 12-07-2019 00:00:00 17.3375 C 92.0313 % 16.03 C
345 13-07-2019 00:00:00 17.99896 C 83.4549 % 15.15 C
346 14-07-2019 00:00:00 16.92569 C 75.5729 % 12.58 C
347 15-07-2019 00:00:00 16.34757 C 73.9826 % 11.7 C
348 16-07-2019 00:00:00 16.0375 C 75.3507 % 11.68 C
349 17-07-2019 00:00:00 17.21979 C 76.2847 % 13.01 C
350 18-07-2019 00:00:00 19.06944 C 74.1424 % 14.36 C
Sensor: Nr:Datum:Temp:Feuchte:Taupunkt:
Aussen-T/F 351 19-07-2019 00:00:00 20.2441 C 77.7257 % 16.23 C
352 20-07-2019 00:00:00 21.61736 C 75.2292 % 17.04 C
353 21-07-2019 00:00:00 21.96076 C 68.7569 % 15.96 C
354 22-07-2019 00:00:00 22.29861 C 66.0139 % 15.64 C
355 23-07-2019 00:00:00 25.05139 C 61.5764 % 17.15 C
356 24-07-2019 00:00:00 27.05069 C 57.6528 % 17.98 C
357 25-07-2019 00:00:00 28.69028 C 53.5729 % 18.33 C
358 26-07-2019 00:00:00 27.21528 C 56.0694 % 17.69 C
359 27-07-2019 00:00:00 23.20069 C 79.9340 % 19.54 C
360 28-07-2019 00:00:00 19.86597 C 90.5938 % 18.28 C
361 29-07-2019 00:00:00 21.16354 C 73.6146 % 16.26 C
362 30-07-2019 00:00:00 21.86528 C 66.5625 % 15.36 C
363 31-07-2019 00:00:00 21.06111 C 60.7778 % 13.2 C
364 01-08-2019 00:00:00 19.46424 C 65.5833 % 12.85 C
365 02-08-2019 00:00:00 20.52743 C 69.8611 % 14.84 C

Maximal/Minimal-Werte vom 03.08.2018 - 02.08.2019

Sensor Min Max Avg
Temp
(Aussen-T/F)
-8.8 °C
22-01-2019  06:35:00
40.4 °C
25-07-2019  16:20:00
11.47 °C
Feuchte
(Aussen-T/F)
19 %
06-07-2019  15:50:00
98 %
23-09-2018  14:00:00
80.48 %
Taupunkt
(Aussen-T/F)
-7.04 C
21-01-2019  00:00:00
20.21 C
26-06-2019  00:00:00
8.01 C

Die Daten stammen von einer Davis Vantage Pro 2 Wetter-Station und werden unter Linux mit der Software wview2wettercgi und aufbereitet. Alle Angaben erfolgen ohne Gewähr für ihre Vollständigkeit oder Richtigkeit.
Kontakt: Rainer Krienke krienke@uni-koblenz.de . Meine Webseiten an der Uni Koblenz oder privat.
Version: $Revision: 0.78 $